| time (UTC) | temp F | wind direction | speed knots | gust knots | rain 1hr in | rain 24hr in | rain mn in | humidity % | barometer mb |
| 20260507191536 | 86 | 21 | 0.9 | 4.3 | 0.00 | 0.00 | 0.00 | 74 | 1014.2 |
| 20260507190036 | 87 | 53 | 0.9 | 3.5 | 0.00 | 0.00 | 0.00 | 74 | 1014.5 |
| 20260507184534 | 86 | 169 | 1.7 | 6.1 | 0.00 | 0.00 | 0.00 | 74 | 1014.6 |
| 20260507183039 | 86 | 224 | 0.9 | 6.1 | 0.00 | 0.00 | 0.00 | 74 | 1014.7 |
| 20260507181533 | 85 | 275 | 1.7 | 7.8 | 0.00 | 0.00 | 0.00 | 76 | 1014.9 |
| 20260507180032 | 86 | 214 | 0.0 | 6.1 | 0.00 | 0.00 | 0.00 | 75 | 1015.0 |
| 20260507174532 | 86 | 4 | 1.7 | 4.3 | 0.00 | 0.00 | 0.00 | 74 | 1015.3 |
| 20260507173041 | 86 | 87 | 1.7 | 7.0 | 0.00 | 0.00 | 0.00 | 74 | 1015.6 |
| 20260507171530 | 86 | 240 | 0.9 | 5.2 | 0.00 | 0.00 | 0.00 | 74 | 1015.7 |
| 20260507170030 | 86 | 258 | 0.9 | 5.2 | 0.00 | 0.00 | 0.00 | 74 | 1015.7 |
| 20260507164528 | 86 | 193 | 1.7 | 5.2 | 0.00 | 0.00 | 0.00 | 73 | 1015.8 |
| 20260507163028 | 85 | 45 | 1.7 | 4.3 | 0.00 | 0.00 | 0.00 | 73 | 1016.0 |
| 20260507161527 | 86 | 200 | 1.7 | 4.3 | 0.00 | 0.00 | 0.00 | 74 | 1016.2 |
| 20260507160026 | 85 | 221 | 0.0 | 6.1 | 0.00 | 0.00 | 0.00 | 74 | 1016.1 |
| 20260507154528 | 85 | 323 | 0.9 | 5.2 | 0.00 | 0.00 | 0.00 | 75 | 1016.1 |
| 20260507153023 | 85 | 320 | 0.9 | 4.3 | 0.00 | 0.00 | 0.00 | 75 | 1016.1 |
| 20260507151522 | 85 | 51 | 1.7 | 4.3 | 0.00 | 0.00 | 0.00 | 75 | 1016.2 |
| 20260507150022 | 85 | 211 | 0.9 | 3.5 | 0.00 | 0.00 | 0.00 | 75 | 1016.2 |
| 20260507144523 | 84 | 71 | 0.9 | 6.1 | 0.00 | 0.00 | 0.00 | 75 | 1016.2 |
| 20260507143020 | 85 | 37 | 1.7 | 4.3 | 0.00 | 0.00 | 0.00 | 74 | 1016.1 |
| 20260507141520 | 85 | 62 | 1.7 | 5.2 | 0.00 | 0.00 | 0.00 | 75 | 1016.0 |
| 20260507140018 | 85 | 240 | 0.0 | 4.3 | 0.00 | 0.00 | 0.00 | 76 | 1016.2 |
| 20260507134517 | 84 | 134 | 0.9 | 3.5 | 0.00 | 0.00 | 0.00 | 76 | 1016.0 |
| 20260507133016 | 84 | 211 | 0.9 | 3.5 | 0.00 | 0.00 | 0.00 | 75 | 1015.8 |
| 20260507131515 | 84 | 70 | 0.9 | 3.5 | 0.00 | 0.00 | 0.00 | 75 | 1015.8 |
| 20260507130011 | 84 | 93 | 0.9 | 2.6 | 0.00 | 0.00 | 0.00 | 77 | 1015.6 |
| 20260507124510 | 83 | 195 | 0.9 | 2.6 | 0.00 | 0.00 | 0.00 | 78 | 1015.5 |
| 20260507123007 | 82 | 174 | 0.9 | 2.6 | 0.00 | 0.00 | 0.00 | 79 | 1015.6 |
| 20260507121505 | 81 | 210 | 0.0 | 1.7 | 0.00 | 0.00 | 0.00 | 81 | 1015.4 |
| 20260507120001 | 80 | 179 | 0.0 | 1.7 | 0.00 | 0.00 | 0.00 | 81 | 1015.3 |
| 20260507114600 | 79 | 179 | 0.9 | 2.6 | 0.00 | 0.00 | 0.00 | 82 | 1015.2 |
| 20260507113057 | 79 | 207 | 0.0 | 2.6 | 0.00 | 0.00 | 0.00 | 83 | 1015.1 |
| 20260507111557 | 79 | 219 | 0.9 | 3.5 | 0.00 | 0.00 | 0.00 | 83 | 1014.8 |
| 20260507110056 | 78 | 167 | 0.9 | 2.6 | 0.00 | 0.00 | 0.00 | 83 | 1014.6 |
| 20260507104558 | 78 | 207 | 0.9 | 2.6 | 0.00 | 0.00 | 0.00 | 83 | 1014.3 |
| 20260507103102 | 78 | 219 | 0.9 | 2.6 | 0.00 | 0.00 | 0.00 | 83 | 1014.2 |
| 20260507101554 | 78 | 186 | 0.0 | 1.7 | 0.00 | 0.00 | 0.00 | 82 | 1014.2 |
| 20260507100052 | 78 | 209 | 0.0 | 1.7 | 0.00 | 0.00 | 0.00 | 82 | 1014.0 |
| 20260507094552 | 78 | 190 | 0.0 | 2.6 | 0.00 | 0.00 | 0.00 | 82 | 1014.0 |
| 20260507093058 | 78 | 281 | 0.0 | 1.7 | 0.00 | 0.00 | 0.00 | 81 | 1014.0 |
| 20260507091556 | 78 | 151 | 0.0 | 2.6 | 0.00 | 0.00 | 0.00 | 81 | 1013.9 |
| 20260507090049 | 78 | 202 | 0.0 | 1.7 | 0.00 | 0.00 | 0.00 | 81 | 1013.7 |
| 20260507084550 | 78 | 210 | 0.0 | 2.6 | 0.00 | 0.00 | 0.00 | 81 | 1013.8 |
| 20260507083049 | 78 | 205 | 0.9 | 2.6 | 0.00 | 0.00 | 0.00 | 81 | 1013.8 |
| 20260507081546 | 78 | 214 | 0.0 | 1.7 | 0.00 | 0.00 | 0.00 | 81 | 1013.9 |
| 20260507080045 | 79 | 164 | 0.0 | 3.5 | 0.00 | 0.00 | 0.00 | 81 | 1014.0 |
| 20260507074545 | 79 | 222 | 0.0 | 2.6 | 0.00 | 0.00 | 0.00 | 81 | 1014.1 |
| 20260507073043 | 78 | 203 | 0.9 | 2.6 | 0.00 | 0.00 | 0.00 | 80 | 1014.0 |
| 20260507071541 | 79 | 195 | 0.0 | 3.5 | 0.00 | 0.00 | 0.00 | 81 | 1014.2 |
| 20260507070043 | 79 | 174 | 0.9 | 3.5 | 0.00 | 0.00 | 0.00 | 80 | 1014.3 |
| 20260507064538 | 79 | 201 | 0.0 | 0.9 | 0.00 | 0.00 | 0.00 | 81 | 1014.4 |
| 20260507063045 | 79 | 210 | 0.0 | 4.3 | 0.00 | 0.00 | 0.00 | 81 | 1014.7 |
| 20260507061536 | 79 | 38 | 0.9 | 3.5 | 0.00 | 0.00 | 0.00 | 80 | 1014.7 |
| 20260507060049 | 79 | 41 | 0.0 | 2.6 | 0.00 | 0.00 | 0.00 | 80 | 1014.7 |
| 20260507054544 | 79 | 33 | 0.9 | 2.6 | 0.00 | 0.00 | 0.00 | 80 | 1014.8 |
| 20260507053031 | 79 | 216 | 0.9 | 2.6 | 0.00 | 0.00 | 0.00 | 80 | 1014.9 |
| 20260507051530 | 79 | 187 | 0.9 | 3.5 | 0.00 | 0.00 | 0.00 | 79 | 1015.2 |
| 20260507050027 | 79 | 13 | 0.0 | 4.3 | 0.00 | 0.00 | 0.00 | 79 | 1015.3 |
| 20260507044545 | 79 | 68 | 1.7 | 5.2 | 0.00 | 0.00 | 0.00 | 79 | 1015.5 |
| 20260507043026 | 79 | 57 | 0.9 | 4.3 | 0.00 | 0.00 | 0.00 | 79 | 1015.5 |
| 20260507041525 | 79 | 4 | 1.7 | 5.2 | 0.00 | 0.00 | 0.00 | 78 | 1015.6 |
| 20260507040029 | 79 | 55 | 0.9 | 2.6 | 0.00 | 0.00 | 0.00 | 78 | 1015.6 |
| 20260507034522 | 79 | 83 | 0.9 | 4.3 | 0.00 | 0.00 | 0.00 | 78 | 1015.5 |
| 20260507033022 | 79 | 152 | 1.7 | 5.2 | 0.00 | 0.00 | 0.00 | 77 | 1015.7 |
| 20260507031521 | 79 | 66 | 0.9 | 5.2 | 0.00 | 0.00 | 0.00 | 78 | 1015.6 |
| 20260507030021 | 79 | 89 | 1.7 | 4.3 | 0.00 | 0.00 | 0.00 | 78 | 1015.5 |
| 20260507024521 | 79 | 82 | 0.9 | 2.6 | 0.00 | 0.00 | 0.00 | 79 | 1015.5 |
| 20260507023021 | 79 | 63 | 0.9 | 3.5 | 0.00 | 0.00 | 0.00 | 79 | 1015.4 |
| 20260507021522 | 79 | 53 | 0.9 | 3.5 | 0.00 | 0.00 | 0.00 | 79 | 1015.4 |
| 20260507020026 | 79 | 82 | 0.9 | 2.6 | 0.00 | 0.00 | 0.00 | 79 | 1015.4 |
| 20260507014519 | 79 | 59 | 0.0 | 2.6 | 0.00 | 0.00 | 0.00 | 79 | 1015.3 |
| 20260507013019 | 79 | 64 | 0.0 | 2.6 | 0.00 | 0.00 | 0.00 | 79 | 1015.3 |
| 20260507011519 | 79 | 25 | 0.0 | 2.6 | 0.00 | 0.00 | 0.00 | 78 | 1015.2 |
| 20260507010025 | 80 | 49 | 0.0 | 0.0 | 0.00 | 0.00 | 0.00 | 78 | 1015.3 |
| 20260507004516 | 80 | 49 | 0.0 | 1.7 | 0.00 | 0.00 | 0.00 | 77 | 1015.3 |
| 20260507003021 | 80 | 48 | 0.0 | 1.7 | 0.00 | 0.00 | 0.00 | 76 | 1015.3 |
| 20260507001523 | 81 | 77 | 0.0 | 1.7 | 0.00 | 0.00 | 0.00 | 76 | 1015.1 |
| 20260507000015 | 82 | 63 | 0.0 | 1.7 | 0.00 | 0.00 | 0.00 | 75 | 1015.1 |
| 20260506234514 | 83 | 198 | 0.0 | 2.6 | 0.00 | 0.00 | 0.00 | 73 | 1014.9 |
| 20260506233014 | 83 | 274 | 0.0 | 3.5 | 0.00 | 0.00 | 0.00 | 73 | 1014.9 |
| 20260506231513 | 83 | 127 | 0.0 | 3.5 | 0.00 | 0.00 | 0.00 | 73 | 1014.9 |
| 20260506230011 | 84 | 101 | 0.9 | 3.5 | 0.00 | 0.00 | 0.00 | 70 | 1015.0 |
| 20260506224512 | 84 | 186 | 0.9 | 2.6 | 0.00 | 0.00 | 0.00 | 71 | 1014.8 |
| 20260506223012 | 83 | 92 | 1.7 | 4.3 | 0.00 | 0.00 | 0.00 | 73 | 1014.6 |
| 20260506221511 | 83 | 72 | 1.7 | 3.5 | 0.00 | 0.00 | 0.00 | 73 | 1014.6 |
| 20260506220010 | 84 | 25 | 0.9 | 4.3 | 0.00 | 0.00 | 0.00 | 73 | 1014.6 |
| 20260506214510 | 84 | 54 | 1.7 | 6.1 | 0.00 | 0.00 | 0.00 | 71 | 1014.6 |
| 20260506213011 | 85 | 39 | 0.9 | 4.3 | 0.00 | 0.00 | 0.00 | 71 | 1014.6 |
| 20260506211508 | 85 | 215 | 0.9 | 3.5 | 0.00 | 0.00 | 0.00 | 71 | 1014.5 |
| 20260506210007 | 85 | 27 | 1.7 | 5.2 | 0.00 | 0.00 | 0.00 | 71 | 1014.5 |
| 20260506204507 | 86 | 212 | 1.7 | 4.3 | 0.00 | 0.00 | 0.00 | 68 | 1014.6 |
| 20260506203006 | 86 | 257 | 0.9 | 5.2 | 0.00 | 0.00 | 0.00 | 70 | 1014.8 |
| 20260506201508 | 86 | 222 | 2.6 | 4.3 | 0.00 | 0.00 | 0.00 | 69 | 1014.8 |
| 20260506200005 | 85 | 39 | 0.9 | 5.2 | 0.00 | 0.00 | 0.00 | 70 | 1014.9 |
| 20260506194505 | 86 | 218 | 0.9 | 3.5 | 0.00 | 0.00 | 0.00 | 69 | 1015.1 |
| 20260506193006 | 87 | 214 | 1.7 | 4.3 | 0.00 | 0.00 | 0.00 | 69 | 1015.2 |